[[{"header":{"parameterUnit":"m.s-1","parameterCategory":1,"la1":30.2991,"la2":30.254,"lo1":-89.0895,"lo2":-89.0444,"dy":0.0017,"dx":0.0017,"nx":28,"ny":28,"refTime":"2024-12-20T09:00:00:Z","depth":0,"parameterNumber":2,"parameterNumberName":"U-component_of_WINDS"},"data":[0,0,0,0,0,0,0,0,0,0,0,0,0,0,0,0,0,0,0,0,0,0,0,0,0,0,0,0,0,0,0,0,0,0,0,0,0,0,0,0,0,0,0,0,0,0,0,0,0,0,0,0,0,0,0,0,0,0,-1.7475,-1.7476,0,-1.7514,-1.7514,-1.7515,-1.7466,-1.7465,-1.7463,-1.7461,-1.7501,-1.7504,-1.7506,0,0,0,0,0,0,0,0,0,0,0,0,0,-1.7361,-1.7363,-1.7475,-1.7476,-1.7476,-1.7514,-1.7514,-1.7515,-1.7467,-1.7465,-1.7463,-1.746,-1.75,-1.7503,-1.7507,0,0,0,0,0,0,0,0,0,0,0,0,0,-1.7406,-1.7364,-1.7475,-1.7457,-1.7456,-1.7513,-1.7514,-1.7515,-1.7467,-1.7465,-1.7462,-1.7459,-1.7499,-1.7503,-1.7507,-1.7585,0,0,-1.752,-1.7521,0,0,0,0,0,0,0,0,-1.7404,-1.741,-1.7459,-1.7458,-1.7457,-1.7483,-1.7488,-1.7538,-1.7468,-1.7463,-1.7461,-1.7458,-1.7497,-1.7501,-1.7514,-1.7587,-1.7589,-1.752,-1.7522,-1.7524,-1.7525,0,0,0,0,0,0,0,-1.7401,-1.7409,-1.7491,-1.746,-1.7459,-1.7447,-1.745,-1.7498,-1.7494,-1.7463,-1.746,-1.7465,-1.7496,-1.751,-1.7515,-1.7589,-1.752,-1.7523,-1.7526,-1.7528,-1.7728,-1.773,0,0,0,0,0,0,-1.74,-1.7406,-1.7489,-1.7492,-1.7423,-1.7451,-1.7455,-1.7477,-1.7494,-1.7494,-1.7467,-1.7462,-1.7505,-1.751,-1.7516,-1.7609,-1.7524,-1.7528,-1.753,-1.7725,-1.7728,-1.7731,0,0,0,0,0,0,-1.7397,-1.7408,-1.7488,-1.7448,-1.7457,-1.7456,-1.7481,-1.7479,-1.7494,-1.7497,-1.7496,-1.7482,-1.7503,-1.751,-1.7568,-1.761,-1.753,-1.7533,-1.7721,-1.7726,-1.773,-1.7795,0,0,0,0,0,0,-1.7394,-1.7407,-1.7437,-1.7449,-1.746,-1.754,-1.7484,-1.7482,-1.7501,-1.7495,-1.7511,-1.7511,-1.7501,-1.7562,-1.7572,-1.7614,-1.7537,-1.7718,-1.7723,-1.7729,-1.7789,-1.7801,-1.7811,0,0,0,0,0,-1.739,-1.7454,-1.7438,-1.7449,-1.7497,-1.7542,-1.7548,-1.7536,-1.7504,-1.7534,-1.7536,-1.7511,-1.7603,-1.7569,-1.7579,-1.7623,-1.7715,-1.7722,-1.7728,-1.7784,-1.7799,-1.7811,0,0,0,0,0,0,-1.7447,-1.7455,-1.7438,-1.7507,-1.7524,-1.7534,-1.7571,-1.7551,-1.7578,-1.7572,-1.7555,-1.7559,-1.7621,-1.7627,-1.7589,-1.7699,-1.7654,-1.7663,-1.7693,-1.7707,-1.7717,-1.7715,-1.754,0,0,0,0,0,-1.7467,-1.7503,-1.7508,-1.7569,-1.7578,-1.7573,-1.7593,-1.7581,-1.7598,-1.7605,-1.7612,-1.7629,-1.7662,-1.7684,-1.7715,-1.7789,-1.7792,-1.7824,-1.7835,-1.7844,-1.7853,-1.7893,-1.7907,-1.7753,-1.7753,-1.7753,0,0,-1.751,-1.7519,-1.7543,-1.758,-1.7592,-1.763,-1.758,-1.7622,-1.765,-1.7612,-1.7667,-1.7672,-1.7691,-1.7757,-1.7787,-1.7765,-1.7895,-1.7852,-1.7859,-1.7863,-1.7901,-1.7915,-1.7928,-1.7757,-1.7756,-1.7756,0,0,-1.7607,-1.7617,-1.7669,-1.7682,-1.77,-1.7696,-1.7709,-1.7721,-1.7723,-1.7778,-1.775,-1.7783,-1.784,-1.7854,-1.7869,-1.7971,-1.7949,-1.7981,-1.8039,-1.8079,-1.8091,-1.8102,-1.8139,-1.8152,-1.7989,-1.7989,-1.799,0,-1.7658,-1.7714,-1.7698,-1.7743,-1.776,-1.7726,-1.7779,-1.7792,-1.7819,-1.7832,-1.7806,-1.7877,-1.7887,-1.7957,-1.7982,-1.7995,-1.8009,-1.798,-1.809,-1.8101,-1.8111,-1.8146,-1.816,-1.7993,-1.7993,-1.7993,-1.7992,0,-1.7776,-1.7816,-1.7855,-1.7882,-1.7904,-1.7952,-1.7944,-1.7967,-1.7954,-1.7953,-1.8009,-1.802,-1.8052,-1.8067,-1.8054,-1.8135,-1.8121,-1.8093,-1.8048,-1.813,-1.8163,-1.8176,-1.7999,-1.7998,-1.7996,-1.7995,0,0,-1.7912,-1.7929,-1.7944,-1.7956,-1.7973,-1.8004,-1.805,-1.8081,-1.8102,-1.8122,-1.8161,-1.8209,-1.8183,-1.82,-1.8188,-1.8223,-1.8303,-1.819,-1.8191,-1.8212,-1.8394,-1.8416,-1.8432,-1.8288,-1.829,-1.8292,-1.8393,0,-1.8011,-1.8091,-1.8078,-1.8156,-1.8192,-1.816,-1.82,-1.8215,-1.8215,-1.8246,-1.8245,-1.828,-1.8243,-1.8253,-1.8285,-1.8287,-1.834,-1.8279,-1.8325,-1.8327,-1.8323,-1.8449,-1.8473,-1.8567,-1.8405,-1.8408,-1.8409,0,-1.8137,-1.8161,-1.8243,-1.8255,-1.8269,-1.8306,-1.8333,-1.8363,-1.8379,-1.8376,-1.8394,-1.8376,-1.8422,-1.8375,-1.8438,-1.8397,-1.8415,-1.8418,-1.8421,-1.8427,-1.8374,-1.8459,-1.8597,-1.8612,-1.8429,-1.8428,-1.8426,0,-1.823,-1.8283,-1.8338,-1.8349,-1.8364,-1.839,-1.8398,-1.8411,-1.843,-1.8454,-1.8466,-1.8495,-1.8511,-1.8534,-1.8524,-1.849,-1.8589,-1.8541,-1.8589,-1.859,-1.8613,-1.8612,-1.8757,-1.8622,-1.8622,-1.8622,-1.8621,0,-1.8343,-1.8394,-1.838,-1.8415,-1.8472,-1.8455,-1.8512,-1.8515,-1.8527,-1.8561,-1.8534,-1.8568,-1.8551,-1.8583,-1.8575,-1.863,-1.8637,-1.8636,-1.8634,-1.864,-1.864,-1.8653,-1.8646,-1.8625,-1.8624,-1.8624,-1.8623,0,-1.8457,-1.8449,-1.8508,-1.8516,-1.852,-1.8561,-1.8568,-1.8601,-1.8598,-1.8642,-1.8651,-1.8647,-1.8683,-1.8674,-1.8714,-1.8708,-1.8777,-1.8766,-1.8772,-1.877,-1.8819,-1.8815,-1.8979,-1.9,-1.8849,-1.8851,-1.8852,0,-1.853,-1.8569,-1.8581,-1.8602,-1.8612,-1.8646,-1.8666,-1.865,-1.8672,-1.8692,-1.8722,-1.8756,-1.8782,-1.8841,-1.8841,-1.8871,-1.8861,-1.8916,-1.8866,-1.887,-1.8864,-1.8862,-1.8866,-1.8927,-1.8929,-1.893,-1.8931,0,-1.8661,-1.8655,-1.8685,-1.8713,-1.8737,-1.8758,-1.8777,-1.8796,-1.8782,-1.8807,-1.8844,-1.8864,-1.8904,-1.8938,-1.8965,-1.8972,-1.895,-1.8947,-1.896,-1.8967,-1.897,-1.897,-1.8801,-1.8944,-1.8942,-1.8942,-1.8941,-1.894,-1.8758,-1.8791,-1.8805,-1.8839,-1.8851,-1.8869,-1.89,-1.89,-1.893,-1.8962,-1.895,-1.8992,-1.9006,-1.9041,-1.9051,-1.9084,-1.9063,-1.9081,-1.9086,-1.9092,-1.9099,-1.8963,-1.9088,-1.9088,-1.9088,-1.9087,-1.9087,0,-1.8889,-1.8896,-1.8927,-1.8954,-1.898,-1.8956,-1.8975,-1.8999,-1.9036,-1.9051,-1.9077,-1.9119,-1.9151,-1.9154,-1.9184,-1.921,-1.92,-1.9218,-1.9217,-1.9219,-1.9115,-1.9101,-1.9225,-1.9225,-1.9225,-1.9225,-1.9225,-1.9225,-1.8961,-1.9016,-1.9012,-1.9073,-1.9079,-1.912,-1.9133,-1.9149,-1.9161,-1.9209,-1.9236,-1.9237,-1.9247,-1.9277,-1.9306,-1.9306,-1.9319,-1.9341,-1.9338,-1.924,-1.9227,-1.9214,-1.9201,-1.9344,-1.9344,-1.9439,-1.944,-1.9441]},{"header":{"parameterUnit":"m.s-1","parameterCategory":1,"la1":30.2991,"la2":30.254,"lo1":-89.0895,"lo2":-89.0444,"dy":0.0017,"dx":0.0017,"nx":28,"ny":28,"refTime":"2024-12-20T09:00:00:Z","depth":0,"parameterNumber":3,"parameterNumberName":"V-component_of_WINDS"},"data":[0,0,0,0,0,0,0,0,0,0,0,0,0,0,0,0,0,0,0,0,0,0,0,0,0,0,0,0,0,0,0,0,0,0,0,0,0,0,0,0,0,0,0,0,0,0,0,0,0,0,0,0,0,0,0,0,0,0,-6.6597,-6.6598,0,-6.6702,-6.6703,-6.6704,-6.6647,-6.6644,-6.6642,-6.6639,-6.6741,-6.6746,-6.6751,0,0,0,0,0,0,0,0,0,0,0,0,0,-6.6341,-6.6346,-6.6597,-6.6598,-6.6599,-6.6702,-6.6703,-6.6705,-6.6648,-6.6644,-6.6641,-6.6638,-6.6739,-6.6745,-6.6752,0,0,0,0,0,0,0,0,0,0,0,0,0,-6.645,-6.6348,-6.6597,-6.6584,-6.6583,-6.6702,-6.6703,-6.6705,-6.6648,-6.6644,-6.664,-6.6636,-6.6737,-6.6745,-6.6753,-6.6888,0,0,-6.6777,-6.6781,0,0,0,0,0,0,0,0,-6.6443,-6.6459,-6.6584,-6.6585,-6.6585,-6.6657,-6.665,-6.6766,-6.665,-6.6624,-6.6639,-6.6634,-6.6716,-6.6725,-6.6754,-6.6893,-6.6897,-6.6778,-6.6783,-6.6786,-6.6788,0,0,0,0,0,0,0,-6.6436,-6.6454,-6.6638,-6.6586,-6.6586,-6.657,-6.6581,-6.6672,-6.6692,-6.6625,-6.6622,-6.6635,-6.6715,-6.6747,-6.6756,-6.6898,-6.6778,-6.6785,-6.679,-6.6793,-6.7152,-6.7157,0,0,0,0,0,0,-6.643,-6.6448,-6.6635,-6.6641,-6.6502,-6.6579,-6.6591,-6.6638,-6.6691,-6.6695,-6.6639,-6.6632,-6.6735,-6.6747,-6.676,-6.6922,-6.6786,-6.6794,-6.6798,-6.7148,-6.7154,-6.7159,0,0,0,0,0,0,-6.6425,-6.6447,-6.6631,-6.6544,-6.6566,-6.6588,-6.6641,-6.6643,-6.6674,-6.6701,-6.6704,-6.6668,-6.6732,-6.6748,-6.6857,-6.6924,-6.6797,-6.6805,-6.7142,-6.715,-6.7156,-6.7247,0,0,0,0,0,0,-6.6418,-6.6446,-6.6499,-6.6546,-6.6571,-6.6728,-6.6646,-6.6648,-6.6689,-6.6681,-6.6729,-6.6733,-6.673,-6.6845,-6.6865,-6.6933,-6.6811,-6.7136,-6.7145,-6.7154,-6.7238,-6.7256,-6.7272,0,0,0,0,0,-6.6409,-6.6519,-6.6502,-6.6525,-6.6638,-6.6732,-6.6746,-6.6743,-6.6695,-6.6747,-6.6764,-6.6731,-6.6914,-6.6857,-6.6878,-6.695,-6.7132,-6.7143,-6.7153,-6.723,-6.7253,-6.7272,0,0,0,0,0,0,-6.6477,-6.6525,-6.6506,-6.6635,-6.668,-6.6722,-6.6789,-6.6766,-6.6824,-6.6815,-6.6806,-6.6817,-6.693,-6.6951,-6.6886,-6.7084,-6.7015,-6.7031,-6.7066,-6.7088,-6.7105,-6.7097,-6.6818,0,0,0,0,0,-6.6508,-6.6582,-6.6619,-6.6729,-6.6753,-6.6767,-6.6808,-6.6801,-6.6847,-6.6865,-6.689,-6.6934,-6.7001,-6.7045,-6.7109,-6.7241,-6.725,-6.7301,-6.7317,-6.7331,-6.7345,-6.7416,-6.7439,-6.7194,-6.7193,-6.7193,0,0,-6.657,-6.6606,-6.6653,-6.6743,-6.6778,-6.6853,-6.6783,-6.6866,-6.6922,-6.6877,-6.6981,-6.7002,-6.7049,-6.7171,-6.7225,-6.7191,-6.7415,-6.7345,-6.7356,-6.7362,-6.7429,-6.7452,-6.7473,-6.7201,-6.7199,-6.7198,0,0,-6.6724,-6.6758,-6.6854,-6.6891,-6.6944,-6.6953,-6.6976,-6.7022,-6.7034,-6.7139,-6.7107,-6.7172,-6.7288,-6.7324,-6.7357,-6.7525,-6.7496,-6.7546,-6.7634,-6.7704,-6.7723,-6.774,-6.78,-6.7821,-6.7559,-6.7559,-6.7559,0,-6.6795,-6.691,-6.6906,-6.6992,-6.7032,-6.6997,-6.7093,-6.7128,-6.7198,-6.7226,-6.7188,-6.7333,-6.7363,-6.7492,-6.7533,-6.7561,-6.7586,-6.754,-6.7721,-6.7738,-6.7754,-6.7811,-6.7833,-6.7565,-6.7564,-6.7563,-6.7563,0,-6.6994,-6.7074,-6.7145,-6.7217,-6.7265,-6.7355,-6.7363,-6.7412,-6.7401,-6.7414,-6.7521,-6.7556,-6.7626,-6.7655,-6.7645,-6.7783,-6.7761,-6.7722,-6.7653,-6.7783,-6.7836,-6.7858,-6.7573,-6.7571,-6.7569,-6.7568,0,0,-6.7194,-6.7263,-6.7289,-6.7321,-6.7378,-6.7439,-6.7527,-6.7597,-6.7639,-6.7689,-6.7762,-6.7861,-6.7826,-6.7864,-6.7857,-6.7918,-6.8049,-6.7872,-6.7873,-6.7904,-6.8203,-6.8232,-6.8258,-6.803,-6.8034,-6.8038,-6.8199,0,-6.7351,-6.7509,-6.7508,-6.7652,-6.7726,-6.7693,-6.777,-6.7812,-6.7826,-6.7889,-6.7903,-6.7974,-6.7922,-6.7945,-6.8004,-6.8021,-6.8109,-6.8009,-6.8097,-6.81,-6.8087,-6.8285,-6.8317,-6.8467,-6.822,-6.8223,-6.8226,0,-6.7557,-6.7616,-6.7768,-6.7815,-6.7845,-6.7915,-6.7979,-6.804,-6.8087,-6.8092,-6.8136,-6.8119,-6.8207,-6.8135,-6.8256,-6.8188,-6.8224,-6.8237,-6.8243,-6.8251,-6.8171,-6.8299,-6.8515,-6.8538,-6.8259,-6.8256,-6.8254,0,-6.7687,-6.7805,-6.7911,-6.794,-6.7996,-6.8046,-6.8071,-6.8114,-6.8156,-6.8212,-6.8239,-6.8303,-6.8339,-6.8388,-6.8389,-6.8337,-6.8511,-6.8439,-6.8517,-6.8517,-6.8555,-6.8553,-6.878,-6.8578,-6.8578,-6.8577,-6.8577,0,-6.7864,-6.7958,-6.7971,-6.8037,-6.8141,-6.8138,-6.8241,-6.8262,-6.83,-6.8368,-6.8342,-6.8406,-6.8403,-6.8467,-6.8468,-6.8567,-6.8583,-6.8589,-6.8588,-6.8592,-6.8591,-6.8615,-6.8605,-6.8583,-6.8582,-6.8581,-6.858,0,-6.8028,-6.804,-6.8154,-6.8199,-6.8213,-6.8288,-6.8325,-6.8387,-6.8398,-6.8484,-6.8504,-6.8522,-6.8596,-6.8602,-6.8687,-6.8687,-6.8808,-6.8796,-6.8794,-6.8792,-6.8869,-6.8862,-6.912,-6.9154,-6.893,-6.8932,-6.8933,0,-6.814,-6.8212,-6.8266,-6.831,-6.8339,-6.8411,-6.8455,-6.8454,-6.8501,-6.8559,-6.8614,-6.8686,-6.8744,-6.8863,-6.8883,-6.8947,-6.8936,-6.9022,-6.8946,-6.8947,-6.8938,-6.8934,-6.8941,-6.9037,-6.904,-6.9042,-6.9043,0,-6.8337,-6.834,-6.8406,-6.8474,-6.8527,-6.858,-6.8629,-6.8667,-6.8672,-6.8725,-6.8802,-6.8847,-6.8935,-6.9006,-6.907,-6.9093,-6.9069,-6.9067,-6.9089,-6.9093,-6.9089,-6.9093,-6.8835,-6.9061,-6.906,-6.9058,-6.9057,-6.9057,-6.8479,-6.8542,-6.859,-6.8664,-6.8701,-6.8748,-6.8808,-6.8829,-6.8893,-6.8967,-6.8961,-6.9046,-6.909,-6.9173,-6.9202,-6.9267,-6.9237,-6.9269,-6.9276,-6.9284,-6.9293,-6.9079,-6.9278,-6.9278,-6.9277,-6.9277,-6.9276,0,-6.8675,-6.8705,-6.8773,-6.8844,-6.8902,-6.8876,-6.8929,-6.8979,-6.9054,-6.9098,-6.9156,-6.9244,-6.9314,-6.9339,-6.9406,-6.9453,-6.9444,-6.9471,-6.9467,-6.9473,-6.9315,-6.929,-6.9477,-6.9477,-6.9477,-6.9477,-6.9477,-6.9477,-6.8785,-6.889,-6.8899,-6.9022,-6.905,-6.9135,-6.9168,-6.921,-6.9246,-6.9346,-6.9404,-6.9421,-6.9457,-6.9527,-6.9589,-6.9594,-6.962,-6.9652,-6.9653,-6.9505,-6.9484,-6.9465,-6.9441,-6.9658,-6.9658,-6.9806,-6.9807,-6.9808]}]]